#timestamp,LO_Frequency,Hit,StdDev 
1609578015.4,286046999.8,N
1609578035.2,286046999.5,N
1609578055.1,286046998.8,N
1609578056.0,286046998.8,N
1609578075.8,286046998.4,N
1609578095.6,286047000.9,N
1609578115.5,286046999.9,N
1609578135.3,286046999.0,N
1609578155.1,286046996.5,Y
1609578175.9,286046999.2,P
1609578195.7,286046998.4,P
1609578215.6,286046999.2,N
1609578235.4,286046999.1,N
1609578255.2,286046998.3,Y
1609578275.1,286046998.5,P
1609578276.0,286046998.5,P
1609578295.8,286046996.8,P
1609578315.7,286046999.5,N
1609578335.5,286046998.7,N
1609578355.3,286046998.1,N
1609578375.2,286047000.5,N
1609578395.0,286046999.9,N
1609578395.9,286046999.9,N
1609578415.8,286047000.2,N
1609578435.6,286047000.7,N
1609578455.4,286046999.7,N
1609578475.3,286046999.9,N
1609578495.1,286047000.1,N
1609578515.8,286046999.9,N
1609578535.7,286047000.1,N
1609578555.5,286047000.5,N
1609578575.4,286047000.0,N
1609578595.2,286046999.9,N
1609578615.0,286047002.1,N
1609578615.9,286047002.1,N
1609578635.8,286047001.1,N
1609578655.6,286046998.5,N
1609578675.4,286046998.5,N
1609578695.3,286046999.8,N
1609578715.1,286046998.8,N
1609578735.9,286047000.3,N
1609578755.7,286047000.5,N
1609578775.5,286046999.8,N
1609578795.4,286047001.8,N
1609578815.2,286047002.0,N
1609578835.1,286047001.4,N
1609578836.0,286047001.4,N
1609578855.8,286047001.3,N
1609578875.6,286046999.7,N
1609578895.5,286047002.5,N
1609578915.3,286047001.4,N
1609578935.1,286047004.3,Y
1609578955.9,286047000.0,P
1609578975.7,286047000.6,N
1609578995.6,286047000.9,P
1609579015.4,286047000.7,N
1609579035.2,286047002.6,Y
1609579055.1,286046999.9,P
1609579056.0,286046999.9,N
1609579075.8,286047002.6,P
1609579095.7,286046999.8,N
1609579115.5,286046999.8,N
1609579135.3,286047002.8,N
1609579155.2,286047001.4,N
1609579175.1,286047001.5,N
1609579176.0,286047001.5,N
1609579195.8,286047002.1,N
1609579215.6,286047002.7,N
1609579235.5,286047002.2,N
1609579255.3,286047000.5,N
1609579275.1,286047000.4,N
1609579295.9,286046999.7,N
1609579315.7,286047002.2,N
1609579335.6,286047004.4,Y
1609579355.4,286046999.7,P
1609579375.2,286047002.3,P
1609579395.1,286047000.0,N
1609579396.0,286047000.0,N
1609579415.8,286047000.0,N
1609579435.7,286046998.1,N
1609579455.5,286047000.9,N
1609579475.3,286047002.4,N
1609579495.2,286046998.2,N
1609579515.9,286046998.2,N
1609579535.7,286046998.3,N
1609579555.6,286046999.5,N
1609579575.4,286046996.9,N
1609579595.3,286046998.7,N
1609579615.1,286046998.4,N
1609579616.0,286046998.4,N
1609579635.8,286046998.5,N
1609579655.7,286047000.8,N
1609579675.5,286046999.9,N
1609579695.3,286047001.1,N
1609579715.2,286047000.3,N
1609579735.0,286047001.0,N
1609579735.9,286047001.0,N
1609579755.8,286047000.5,N
1609579775.6,286047000.5,N
1609579795.4,286046998.1,N
1609579815.3,286046998.6,N
1609579835.1,286046997.1,N
1609579855.9,286046999.0,N
1609579875.7,286046998.2,N
1609579895.5,286046998.4,N
1609579915.4,286047000.8,N
1609579935.2,286046998.5,N
1609579955.0,286046999.1,N
1609579955.9,286046999.1,N
1609579975.8,286046998.9,N
1609579995.6,286046998.4,N
1609580015.5,286046999.6,N
1609580035.3,286046996.7,N
1609580055.1,286046997.3,N
1609580075.9,286046997.8,N
1609580095.7,286046997.5,N
1609580115.5,286046997.4,N
1609580135.4,286046997.3,N
1609580155.2,286046997.7,N
1609580175.1,286046997.8,N
1609580176.0,286046997.8,N
1609580195.8,286046998.0,N
1609580215.6,286046998.0,N
1609580235.5,286046998.0,N
1609580255.3,286046995.4,Y
1609580275.2,286046999.2,P
1609580295.0,286046997.4,P
1609580295.9,286046997.4,P
1609580315.8,286046995.7,Y
1609580335.6,286046996.7,P
1609580355.4,286046996.7,P
1609580375.3,286046996.7,P
1609580395.1,286046997.1,Y
1609580415.8,286047000.8,P
1609580435.7,286046999.6,N
1609580455.5,286046996.6,N
1609580475.4,286046998.9,N
1609580495.2,286046998.5,N
1609580515.0,286047000.8,N
1609580515.9,286047000.8,N
1609580535.8,286046998.1,N
1609580555.6,286046996.5,N
1609580575.5,286046999.4,N
1609580595.3,286046998.9,N
1609580615.1,286046999.2,N
1609580635.9,286046998.5,N
1609580655.7,286046999.2,N
1609580675.5,286046999.1,N
1609580695.4,286046996.6,N
1609580715.2,286046997.2,N
1609580735.1,286046997.9,N
1609580736.0,286046997.9,N
1609580755.8,286046997.0,N
1609580775.6,286046996.5,N
1609580795.5,286046997.4,N
1609580815.3,286046997.0,N
1609580835.1,286046998.6,N
1609580855.9,286046999.2,N
1609580875.7,286046997.5,N
1609580895.6,286046995.5,Y
1609580915.4,286046995.7,P
1609580935.2,286046994.8,P
1609580955.1,286046994.2,P
1609580956.0,286046994.2,Y
1609580975.8,286046997.1,P
1609580995.7,286046995.7,P
1609581015.5,286046995.3,P
1609581035.3,286046997.1,Y
1609581055.2,286047000.9,P
1609581075.0,286046999.8,N
1609581075.9,286046999.8,N
1609581095.8,286047002.3,N
1609581115.6,286047000.4,N
1609581135.4,286047004.4,N
1609581155.3,286047003.5,N
1609581175.1,286047003.6,N
1609581195.8,286047003.9,N
1609581215.7,286047003.0,N
1609581235.5,286047003.0,N
1609581255.4,286047003.9,N
1609581275.2,286047001.9,N
1609581295.0,286047003.2,N
1609581295.9,286047003.2,N
1609581315.8,286047003.4,N
1609581335.6,286047001.7,N
1609581355.4,286047004.4,N
1609581375.3,286047003.1,N
1609581395.1,286047003.6,N
1609581415.9,286047002.0,N
1609581435.7,286047003.6,N
1609581455.5,286047003.3,N
1609581475.4,286047003.5,N
1609581495.2,286047002.3,N
1609581515.0,286047002.6,N
1609581515.9,286047002.6,N
1609581535.8,286047001.3,N
1609581555.6,286047006.0,Y
1609581575.5,286047003.8,P
1609581595.3,286047001.3,N
